Weather History for KDIK - November, 2010

Change the Weather History Date:

Wednesday, November 3, 2010

  Actual Average Record
Temperature  
Mean Temperature 41 °F 36 °F  
Max Temperature 54 °F 47 °F 78 °F (1904)
Min Temperature 27 °F 25 °F -5 °F (1936)
Degree Days  
Heating Degree Days 24 29  
Month to date heating degree days 57 86  
Since 1 July heating degree days 893 1097  
Cooling Degree Days 0 0  
Month to date cooling degree days 0 0  
Year to date cooling degree days 302 419  
Moisture  
Dew Point 25 °F    
Average Humidity 59    
Maximum Humidity 89    
Minimum Humidity 28    
Precipitation  
Precipitation 0.00 in 0.02 in 0.26 in (1956)
Month to date precipitation 0.00 0.07  
Year to date precipitation 13.62 15.06  
Sea Level Pressure  
Sea Level Pressure 30.45 in    
Wind  
Wind Speed 14 mph (WNW)    
Max Wind Speed 32 mph    
Max Gust Speed 45 mph    
Visibility 10 miles    
Events      
T = Trace of Precipitation, MM = Missing Value Source: NWS Daily Summary

Daily Weather History Graph

Daily Weather History Graph

Search for Another Location

Airport or City:

Trip Planner

Search our weather history database for the weather conditions in past years. The results will help you decide how hot, cold, wet, or windy it might be!

Date:

Astronomy

Nov. 03, 2010 Rise Set
Actual Time 7:36 AM MDT 5:32 PM MDT
Civil Twilight 7:04 AM MDT 6:04 PM MDT
Nautical Twilight 6:28 AM MDT 6:40 PM MDT
Astronomical Twilight 5:53 AM MDT 7:15 PM MDT
Moon 4:30 AM MDT (11/3) 3:49 PM MDT (11/3)
Length of Visible Light 10h 59m
Length of Day
9h 55m
Waning Crescent, 8% of the Moon is Illuminated
Nov 3
Waning Crescent
Nov 5
New
Nov 13
First Quarter
Nov 21
Full
Nov 28
Last Quarter

Hourly Weather History & Observations

Time (MDT) Temp. Windchill Dew Point Humidity Pressure Visibility Wind Dir Wind Speed Gust Speed Precip Events Conditions
12:56 AM 37.9 °F 32.1 °F 32.0 °F 79% 30.34 in 10.0 mi WNW 8.1 mph - N/A   Clear
1:56 AM 34.0 °F 28.0 °F 30.0 °F 85% 30.35 in 10.0 mi West 6.9 mph - N/A   Clear
2:56 AM 34.0 °F 27.2 °F 30.0 °F 85% 30.36 in 10.0 mi West 8.1 mph - N/A   Clear
3:56 AM 32.0 °F 24.2 °F 28.9 °F 88% 30.37 in 10.0 mi West 9.2 mph - N/A   Clear
4:56 AM 34.0 °F 25.0 °F 30.0 °F 85% 30.39 in 10.0 mi West 12.7 mph - N/A   Clear
5:56 AM 35.1 °F 26.9 °F 28.9 °F 78% 30.40 in 10.0 mi West 11.5 mph - N/A   Partly Cloudy
6:56 AM 37.0 °F 30.4 °F 30.0 °F 76% 30.44 in 10.0 mi NNW 9.2 mph - N/A   Overcast
7:56 AM 33.1 °F 24.4 °F 28.0 °F 82% 30.47 in 10.0 mi West 11.5 mph - N/A   Clear
8:56 AM 41.0 °F 32.8 °F 30.9 °F 67% 30.47 in 10.0 mi WNW 16.1 mph - N/A   Clear
9:56 AM 46.0 °F 38.8 °F 30.0 °F 54% 30.46 in 10.0 mi NW 18.4 mph 26.5 mph N/A   Clear
10:56 AM 48.9 °F - 27.0 °F 43% 30.47 in 10.0 mi NW 20.7 mph 33.4 mph N/A   Clear
11:56 AM 52.0 °F - 24.1 °F 34% 30.45 in 10.0 mi NW 24.2 mph 34.5 mph N/A   Clear
12:56 PM 53.1 °F - 23.0 °F 31% 30.44 in 10.0 mi NW 26.5 mph 41.4 mph N/A   Clear
1:56 PM 54.0 °F - 21.9 °F 29% 30.45 in 10.0 mi NW 27.6 mph 39.1 mph N/A   Clear
2:56 PM 53.1 °F - 23.0 °F 31% 30.45 in 10.0 mi NNW 21.9 mph 35.7 mph N/A   Clear
3:56 PM 52.0 °F - 21.9 °F 31% 30.47 in 10.0 mi NW 21.9 mph 27.6 mph N/A   Clear
4:56 PM 50.0 °F - 21.0 °F 32% 30.47 in 10.0 mi NW 17.3 mph 27.6 mph N/A   Clear
5:56 PM 41.0 °F 34.3 °F 21.9 °F 47% 30.49 in 10.0 mi NW 11.5 mph - N/A   Clear
6:56 PM 39.9 °F 33.4 °F 21.9 °F 49% 30.49 in 10.0 mi NW 10.4 mph - N/A   Clear
7:56 PM 36.0 °F 29.6 °F 21.9 °F 57% 30.51 in 10.0 mi NW 8.1 mph - N/A   Clear
8:56 PM 32.0 °F 24.2 °F 21.0 °F 64% 30.51 in 10.0 mi NW 9.2 mph - N/A   Clear
9:56 PM 30.9 °F 22.8 °F 21.0 °F 67% 30.51 in 10.0 mi WNW 9.2 mph - N/A   Clear
10:56 PM 28.9 °F 20.4 °F 21.0 °F 72% 30.50 in 10.0 mi WNW 9.2 mph - N/A   Clear
11:56 PM 28.9 °F 21.9 °F 21.0 °F 72% 30.50 in 10.0 mi WNW 6.9 mph - N/A   Clear